Weather reports worldwide

Advertisment
Altnaharra, United Kingdom (3044): temperature & dewpoint: 06.11.2019 06:00:00 - 12.11.2019 06:00:00 (GMT)Altnaharra, United Kingdom (3044): temperature -20cm & temperature -100cm: 06.11.2019 06:00:00 - 12.11.2019 06:00:00 (GMT)Altnaharra, United Kingdom (3044): wind speed & gusts: 06.11.2019 06:00:00 - 12.11.2019 06:00:00 (GMT)Altnaharra, United Kingdom (3044): wind direction: 06.11.2019 06:00:00 - 12.11.2019 06:00:00 (GMT)Altnaharra, United Kingdom (3044): reduced air pressure: 06.11.2019 06:00:00 - 12.11.2019 06:00:00 (GMT)Altnaharra, United Kingdom (3044): visibility: 06.11.2019 06:00:00 - 12.11.2019 06:00:00 (GMT)Altnaharra, United Kingdom (3044): sunshine duration: 06.11.2019 06:00:00 - 12.11.2019 06:00:00 (GMT)Altnaharra, United Kingdom (3044): precipitation: 06.11.2019 06:00:00 - 12.11.2019 06:00:00 (GMT)
Date & Time tt [°C] td [°C] tt -20cm [°C] tt -100cm [°C] ff [km/h] ff [kn] fx [km/h] fx [kn] dd ppp [hPa] vv [km] sd [min] rr [mm]
12.11.2019 06:00:00 - - - - - - - - - - - - -
12.11.2019 05:00:00 6,1 5,2 - - 18 10 - - N 994,3 12 0 0,0
12.11.2019 04:00:00 6,5 5,7 - - 15 8 - - N 993,2 17 0 0,2
12.11.2019 03:00:00 5,3 4,7 - - 11 6 - - N 992,9 17 0 2,4
12.11.2019 02:00:00 5,5 4,4 - - 18 10 - - NNE 992,6 7 0 3,4
12.11.2019 01:00:00 5,9 5,1 - - 18 10 - - N 991,8 35 0 0,4
12.11.2019 00:00:00 5,6 5,1 - - 15 8 - - N 991,6 18 - 0,2
11.11.2019 23:00:00 3,8 3,6 - - 2 1 - - ESE 991,2 26 0 0,2
11.11.2019 22:00:00 4,3 4,1 - - 4 2 - - E 991,1 50 0 0,0
11.11.2019 21:00:00 4,4 4,1 - - 2 1 - - NNW 990,9 40 0 0,4
11.11.2019 20:00:00 5,0 4,5 - - 9 5 - - NNE 990,6 11 0 1,4
11.11.2019 19:00:00 5,0 4,7 - - 5 3 - - NNE 990,2 40 0 0,4
11.11.2019 18:00:00 5,1 4,8 - - 13 7 - - NNE 990,0 22 0 0,2
11.11.2019 17:00:00 4,5 4,1 - - 4 2 - - S 989,8 30 0 0,2
11.11.2019 16:00:00 4,9 4,1 - - 8 4 - - NNE 989,8 40 0 0,2
11.11.2019 15:00:00 5,8 5,3 - - 5 3 - - N 989,7 35 0 0,0
11.11.2019 14:00:00 6,0 5,3 - - 9 5 - - N 989,9 50 0 0,0
11.11.2019 13:00:00 6,0 5,5 - - 5 3 - - NNW 990,1 45 0 0,0
11.11.2019 12:00:00 5,7 5,2 - - 8 4 - - NNE 990,5 50 0 0,2
11.11.2019 11:00:00 4,8 4,3 - - 11 6 - - N 991,0 11 0 0,2
11.11.2019 10:00:00 4,4 3,8 - - 13 7 - - N 991,1 40 0 0,0
11.11.2019 09:00:00 4,0 3,5 6,0 8,0 11 6 - - N 991,2 50 0 0,0
11.11.2019 08:00:00 4,0 3,4 - - 8 4 - - N 991,4 50 0 0,0
11.11.2019 07:00:00 3,8 3,4 - - 11 6 - - NE 991,2 40 0 0,0
11.11.2019 06:00:00 3,5 2,8 - - 9 5 - - NNE 991,8 12 0 0,0
11.11.2019 05:00:00 3,8 2,7 - - 21 11 54 29 E 992,7 12 0 0,2
11.11.2019 04:00:00 3,7 2,3 - - 37 20 54 29 E 993,2 12 0 0,0
11.11.2019 03:00:00 3,2 1,9 - - 24 13 - - E 994,9 50 0 0,0
11.11.2019 02:00:00 2,9 1,5 - - 21 11 48 26 ENE 996,7 30 0 0,0
11.11.2019 01:00:00 2,5 1,0 - - 31 17 57 31 E 998,2 26 0 0,4
11.11.2019 00:00:00 3,2 0,6 - - 26 14 48 26 ESE 999,8 13 - 0,0
10.11.2019 23:00:00 4,3 -1,0 - - 24 13 48 26 E 1001,1 50 0 0,0
10.11.2019 22:00:00 3,8 -1,8 - - 11 6 - - E 1003,1 40 0 0,0
10.11.2019 21:00:00 4,3 -2,2 - - 21 11 48 26 ESE 1005,2 40 0 0,0
10.11.2019 20:00:00 4,6 -3,2 - - 29 16 59 32 ESE 1006,7 50 0 0,0
10.11.2019 19:00:00 4,6 -3,0 - - 21 11 52 28 E 1007,9 50 0 0,0
10.11.2019 18:00:00 3,7 -1,6 - - 22 12 - - ESE 1009,6 45 0 0,0
10.11.2019 17:00:00 4,3 -2,4 - - 16 9 48 26 ESE 1010,8 50 0 0,0
10.11.2019 16:00:00 4,3 -1,7 - - 16 9 - - ESE 1011,9 45 0 0,0
10.11.2019 15:00:00 4,1 -1,2 - - 18 10 - - SE 1012,9 45 0 0,2
10.11.2019 14:00:00 0,8 0,0 - - 5 3 - - W 1014,7 50 36 0,0
10.11.2019 13:00:00 -0,9 -1,4 - - 4 2 - - WNW 1016,1 35 6 0,0
10.11.2019 12:00:00 -1,2 -2,0 - - 4 2 - - W 1017,3 29 18 0,0
10.11.2019 11:00:00 0,1 -1,0 - - 0 0 - - N 1018,0 21 60 0,0
10.11.2019 10:00:00 -4,4 -4,8 - - 2 1 - - W 1018,7 30 54 0,0
10.11.2019 09:00:00 -6,9 -7,6 6,5 8,2 4 2 - - WNW 1019,6 45 0 0,0
10.11.2019 08:00:00 -7,2 -7,9 - - 4 2 - - W 1019,9 50 0 0,0
10.11.2019 07:00:00 -7,1 -7,8 - - 2 1 - - WSW 1019,0 50 0 0,0
10.11.2019 06:00:00 -6,5 -7,1 - - 8 4 - - W 1018,9 40 0 0,0
10.11.2019 05:00:00 -7,1 -7,8 - - 4 2 - - WSW 1018,7 40 0 0,0
10.11.2019 04:00:00 -6,4 -7,0 - - 5 3 - - W 1018,3 50 0 0,0
10.11.2019 03:00:00 -5,9 -6,5 - - 4 2 - - NW 1018,0 50 0 0,0
10.11.2019 02:00:00 -5,8 -6,4 - - 5 3 - - W 1017,8 50 0 0,0
10.11.2019 01:00:00 -4,6 -5,2 - - 2 1 - - SE 1017,3 30 0 0,0
10.11.2019 00:00:00 -3,6 -4,0 - - 4 2 48 26 WNW 1017,2 45 - 0,0
09.11.2019 23:00:00 -3,6 -4,0 - - 4 2 - - W 1016,6 40 0 0,0
09.11.2019 22:00:00 -2,9 -3,4 - - 4 2 - - WSW 1015,7 50 0 0,0
09.11.2019 21:00:00 -1,4 -2,1 - - 2 1 - - NW 1014,8 50 0 0,0
09.11.2019 20:00:00 0,4 -0,1 - - 8 4 - - WNW 1013,9 30 0 0,0
09.11.2019 19:00:00 1,3 0,6 - - 8 4 - - W 1013,1 40 0 0,0
09.11.2019 18:00:00 2,4 1,5 - - 8 4 - - ENE 1012,5 50 0 0,0
09.11.2019 17:00:00 2,3 1,1 - - 9 5 - - N 1011,7 50 0 0,0
09.11.2019 16:00:00 3,5 1,6 - - 9 5 - - ENE 1010,9 50 0 0,0
09.11.2019 15:00:00 3,2 1,6 - - 15 8 - - ESE 1010,1 45 0 0,4
09.11.2019 14:00:00 5,4 3,0 - - 13 7 - - NE 1009,1 29 48 0,2
09.11.2019 13:00:00 5,2 1,5 - - 11 6 - - ENE 1008,8 40 6 0,0
09.11.2019 12:00:00 4,8 1,5 - - 15 8 - - E 1008,7 50 30 0,0
09.11.2019 11:00:00 4,9 0,9 - - 21 11 - - E 1008,3 45 6 0,0
09.11.2019 10:00:00 3,1 0,5 - - 18 10 - - ENE 1008,3 50 0 0,0
09.11.2019 09:00:00 2,1 0,8 6,7 8,5 11 6 - - ENE 1008,9 50 0 0,0
09.11.2019 08:00:00 2,0 0,4 - - 13 7 - - E 1008,9 30 0 0,0
09.11.2019 07:00:00 1,5 -0,5 - - 15 8 - - ENE 1008,8 35 0 0,0
09.11.2019 06:00:00 3,1 0,5 - - 18 10 - - E 1008,9 45 0 0,0
09.11.2019 05:00:00 2,0 0,4 - - 15 8 - - ENE 1009,1 50 0 0,0
09.11.2019 04:00:00 2,3 0,9 - - 11 6 - - ENE 1009,5 50 0 0,0
09.11.2019 03:00:00 1,4 -0,2 - - 9 5 - - NNE 1010,0 50 0 0,0
09.11.2019 02:00:00 2,4 0,0 - - 24 13 - - NE 1010,1 50 0 0,0
09.11.2019 01:00:00 -3,0 -3,3 - - 8 4 - - W 1011,2 50 0 0,0
09.11.2019 00:00:00 -4,3 -4,7 - - 4 2 - - WNW 1012,3 50 - 0,0
08.11.2019 23:00:00 -4,1 -4,4 - - 5 3 - - NW 1012,9 50 0 0,0
08.11.2019 22:00:00 -4,8 -5,2 - - 8 4 - - WNW 1013,2 40 0 0,0
08.11.2019 21:00:00 -4,7 -5,1 - - 4 2 - - NW 1013,8 50 0 0,0
08.11.2019 20:00:00 -4,5 -4,9 - - 4 2 - - W 1014,2 50 0 0,0
08.11.2019 19:00:00 -4,1 -4,6 - - 4 2 - - W 1014,6 35 0 0,0
08.11.2019 18:00:00 -2,9 -3,5 - - 4 2 - - NW 1014,7 40 0 0,0
08.11.2019 17:00:00 -1,5 -2,3 - - 2 1 - - W 1014,8 50 0 0,0
08.11.2019 16:00:00 1,1 -1,4 - - 2 1 - - SE 1014,6 35 30 0,0
08.11.2019 15:00:00 4,8 1,3 - - 5 3 - - ESE 1014,3 50 60 0,0
08.11.2019 14:00:00 5,5 1,1 - - 5 3 - - SE 1014,6 29 60 0,2
08.11.2019 13:00:00 5,6 2,2 - - 2 1 - - S 1014,9 50 60 0,0
08.11.2019 12:00:00 3,8 1,8 - - 2 1 - - WSW 1015,3 45 60 0,4
08.11.2019 11:00:00 1,0 0,5 - - 4 2 - - WSW 1015,8 40 60 0,0
08.11.2019 10:00:00 -0,9 -0,9 - - 4 2 - - SE 1015,8 50 36 0,0
08.11.2019 09:00:00 -3,1 -3,5 7,2 8,7 2 1 - - W 1015,4 50 0 0,0
08.11.2019 08:00:00 -2,8 -3,2 - - 4 2 - - WNW 1015,2 50 0 0,0
08.11.2019 07:00:00 -1,7 -2,0 - - 2 1 - - SSW 1014,7 50 0 0,0
08.11.2019 06:00:00 -1,8 -2,0 - - 2 1 - - SE 1014,5 16 0 0,0
08.11.2019 05:00:00 -1,6 -1,9 - - 2 1 - - W 1014,2 40 0 0,0
08.11.2019 04:00:00 -1,4 -1,8 - - 5 3 - - ENE 1014,2 35 0 0,0
08.11.2019 03:00:00 -0,9 -1,3 - - 2 1 - - W 1013,7 27 0 0,0
08.11.2019 02:00:00 -0,9 -1,4 - - 9 5 - - NW 1013,9 50 0 0,0
08.11.2019 01:00:00 -0,3 -0,9 - - 5 3 - - NE 1013,6 18 0 0,0
08.11.2019 00:00:00 1,2 0,7 - - 15 8 - - NE 1013,1 11 - 0,0
07.11.2019 23:00:00 0,0 -0,4 - - 5 3 - - WNW 1012,8 50 0 0,0
07.11.2019 22:00:00 0,7 0,1 - - 2 1 - - N 1012,7 50 0 0,2
07.11.2019 21:00:00 1,2 0,5 - - 4 2 - - N 1012,4 11 0 0,0
07.11.2019 20:00:00 -1,7 -2,5 - - 4 2 - - NNW 1012,0 50 0 0,0
07.11.2019 19:00:00 -0,3 -1,8 - - 8 4 - - NW 1011,5 35 0 0,0
07.11.2019 18:00:00 1,4 -0,2 - - 9 5 - - ENE 1010,8 35 0 0,0
07.11.2019 17:00:00 2,1 0,6 - - 9 5 - - NNE 1009,7 40 0 0,0
07.11.2019 16:00:00 3,9 1,6 - - 11 6 - - NNE 1008,9 50 0 0,0
07.11.2019 15:00:00 5,5 0,9 - - 13 7 - - NE 1008,2 50 42 0,0
07.11.2019 14:00:00 6,2 1,5 - - 16 9 - - NE 1007,3 30 48 0,0
07.11.2019 13:00:00 5,9 2,7 - - 22 12 - - NNE 1006,6 45 42 0,0
07.11.2019 12:00:00 6,2 2,9 - - 18 10 - - NE 1006,1 45 48 0,0
07.11.2019 11:00:00 5,4 2,8 - - 11 6 - - ENE 1005,6 40 12 0,0
07.11.2019 10:00:00 4,0 2,7 - - 5 3 - - ENE 1005,0 50 0 0,0
07.11.2019 09:00:00 3,3 2,1 7,5 8,7 9 5 - - NE 1004,3 45 0 0,0
07.11.2019 08:00:00 2,5 1,7 - - 4 2 - - ENE 1003,8 50 0 0,0
07.11.2019 07:00:00 2,0 1,3 - - 2 1 - - NNW 1002,9 50 0 0,0
07.11.2019 06:00:00 2,4 1,8 - - 9 5 - - ENE 1002,4 50 0 0,2
07.11.2019 05:00:00 2,0 1,4 - - 15 8 - - NE 1002,0 16 0 0,6
07.11.2019 04:00:00 1,9 1,7 - - 9 5 - - ENE 1001,8 35 0 0,0
07.11.2019 03:00:00 1,3 1,1 - - 11 6 - - E 1001,4 50 0 0,2
07.11.2019 02:00:00 1,2 1,1 - - 15 8 - - NE 1001,3 30 0 1,2
07.11.2019 01:00:00 1,3 1,3 - - 5 3 - - NNW 1001,2 6 0 0,8
07.11.2019 00:00:00 1,3 1,3 - - 8 4 - - NNE 1001,0 9 - 0,2
06.11.2019 23:00:00 1,0 1,0 - - 2 1 - - W 1001,3 50 0 0,2
06.11.2019 22:00:00 0,9 0,9 - - 2 1 - - SW 1001,4 30 0 0,6
06.11.2019 21:00:00 0,7 0,7 - - 2 1 - - NNW 1001,7 23 0 0,0
06.11.2019 20:00:00 -0,1 -0,1 - - 4 2 - - W 1001,6 50 0 0,0
06.11.2019 19:00:00 -0,3 -0,4 - - 4 2 - - ESE 1001,6 35 0 0,0
06.11.2019 18:00:00 1,2 1,1 - - 2 1 - - W 1001,5 30 0 0,0
06.11.2019 17:00:00 1,7 1,6 - - 2 1 - - SE 1001,6 27 0 0,0
06.11.2019 16:00:00 2,3 2,3 - - 2 1 - - NNW 1001,7 50 0 0,0
06.11.2019 15:00:00 2,2 2,2 - - 2 1 - - ENE 1002,2 40 0 0,0
06.11.2019 14:00:00 1,4 1,4 - - 2 1 - - E 1002,7 35 0 0,2
06.11.2019 13:00:00 0,2 0,2 - - 4 2 - - NW 1003,3 50 0 0,0
06.11.2019 12:00:00 -0,4 -0,4 - - 2 1 - - W 1004,0 5 6 0,0
06.11.2019 11:00:00 -1,2 -1,2 - - 4 2 - - W 1004,6 0,2 0 0,0
06.11.2019 10:00:00 -2,1 -2,1 - - 2 1 - - WNW 1005,2 0,2 0 0,0
06.11.2019 09:00:00 -2,8 -2,9 7,9 8,9 2 1 - - SW 1005,4 1,1 0 0,0
06.11.2019 08:00:00 -3,7 -3,8 - - 4 2 - - W 1005,8 0,4 0 0,0
06.11.2019 07:00:00 -3,2 -3,4 - - 4 2 - - W 1005,9 1,0 0 0,0
06.11.2019 06:00:00 -2,3 -2,4 - - 5 3 - - W 1006,2 8 0 0,0

tt = temperature
td = dewpoint
tt -20cm = temperature -20cm
tt -100cm = temperature -100cm
ff = wind speed
fx = gusts
dd = wind direction
ppp = reduced air pressure
vv = visibility
sd = sunshine duration
rr = precipitation

Next stations